#timestamp,LO_Frequency,Hit,StdDev 
1506290415.9,286046998.2,P
1506290435.7,286047001.1,P
1506290455.5,286046998.2,N
1506290475.4,286046998.6,N
1506290495.2,286046999.0,N
1506290515.1,286046998.4,N
1506290516.0,286046998.4,N
1506290535.8,286046998.8,N
1506290555.6,286046998.3,N
1506290575.5,286046998.5,N
1506290595.3,286046996.5,Y
1506290615.2,286046998.1,P
1506290635.9,286046998.1,P
1506290655.7,286047000.7,N
1506290675.6,286046998.6,N
1506290695.4,286046998.4,N
1506290715.3,286046998.3,N
1506290735.1,286046998.4,N
1506290755.8,286046998.6,N
1506290775.7,286046998.4,N
1506290795.5,286046998.3,N
1506290815.4,286046998.6,N
1506290835.2,286046999.0,N
1506290855.0,286046998.1,Y
1506290856.0,286046998.1,P
1506290875.8,286047000.3,N
1506290895.6,286047000.5,N
1506290915.5,286046998.3,N
1506290935.3,286046998.1,N
1506290955.1,286046998.7,N
1506290975.9,286046998.1,N
1506290995.7,286046998.2,N
1506291015.6,286046998.8,N
1506291035.4,286046999.1,N
1506291055.2,286046998.2,N
1506291075.1,286046998.5,N
1506291076.0,286046998.5,N
1506291095.8,286046998.2,N
1506291115.7,286047000.8,N
1506291135.5,286047001.2,N
1506291155.3,286047001.0,N
1506291175.2,286046999.9,N
1506291195.0,286047000.2,N
1506291195.9,286047000.2,N
1506291215.8,286047002.8,N
1506291235.6,286047001.0,N
1506291255.4,286047001.2,N
1506291275.3,286047000.4,N
1506291295.1,286047000.0,N
1506291315.9,286046998.7,N
1506291335.7,286046998.7,N
1506291355.5,286046999.0,N
1506291375.4,286047001.0,N
1506291395.2,286047001.0,N
1506291415.1,286046998.1,N
1506291416.0,286046998.1,N
1506291435.8,286046998.2,N
1506291455.6,286046998.6,N
1506291475.5,286046998.4,N
1506291495.3,286046999.1,N
1506291515.2,286046998.6,N
1506291535.9,286046998.8,N
1506291555.7,286046999.0,N
1506291575.6,286046998.0,N
1506291595.4,286046997.4,N
1506291615.2,286046996.6,N
1506291635.1,286046997.3,N
1506291636.0,286046997.3,N
1506291655.8,286046995.3,Y
1506291675.7,286046997.2,P
1506291695.5,286046997.8,N
1506291715.4,286046997.7,N
1506291735.2,286046997.5,Y
1506291755.0,286046998.8,P
1506291755.9,286046998.8,P
1506291775.8,286046999.4,N
1506291795.6,286046999.4,N
1506291815.5,286046999.1,N
1506291835.3,286046999.1,N
1506291855.1,286046996.5,Y
1506291875.9,286047000.4,P
1506291895.7,286047001.0,N
1506291915.6,286047001.1,N
1506291935.4,286047001.2,N
1506291955.2,286047000.8,N
1506291975.1,286047000.8,N
1506291976.0,286047000.8,N
1506291995.8,286047000.8,N
1506292015.6,286046998.1,Y
1506292035.5,286046998.3,P
1506292055.3,286046998.5,N
1506292075.2,286046998.6,N
1506292095.9,286047000.9,N
1506292115.7,286047000.5,N
1506292135.6,286047000.3,N
1506292155.4,286046999.8,N
1506292175.3,286046999.9,N
1506292195.1,286046999.7,N
1506292196.0,286047011.9,Y
1506292215.8,286047000.2,P
1506292235.7,286047000.1,N
1506292255.5,286047000.3,N
1506292275.4,286047000.3,N
1506292295.2,286047001.7,Y
1506292315.0,286047002.1,P
1506292315.9,286047002.1,N
1506292335.8,286046999.7,N
1506292355.6,286047000.2,N
1506292375.5,286047002.2,N
1506292395.3,286047002.2,N
1506292415.1,286047003.8,Y
1506292435.9,286047002.5,P
1506292455.7,286047002.4,P
1506292475.6,286047002.8,P
1506292495.4,286047004.0,Y
1506292515.2,286047000.2,P
1506292535.1,286047000.4,N
1506292536.0,286047000.4,N
1506292555.8,286047000.9,N
1506292575.7,286047002.8,Y
1506292595.5,286046998.4,P
1506292615.3,286046999.0,N
1506292635.2,286046998.6,N
1506292655.0,286046998.4,N
1506292655.9,286046998.4,N
1506292675.8,286046998.9,N
1506292695.6,286046998.5,N
1506292715.4,286046998.8,N
1506292735.3,286046998.2,N
1506292755.1,286047000.7,N
1506292775.8,286046998.1,N
1506292795.7,286046998.1,N
1506292815.5,286047001.1,N
1506292835.4,286047000.2,N
1506292855.2,286047000.3,N
1506292875.0,286047000.4,N
1506292875.9,286047000.4,N
1506292895.8,286047002.7,N
1506292915.6,286047002.0,N
1506292935.4,286047002.4,N
1506292955.3,286047000.6,N
1506292975.1,286047000.0,N
1506292995.9,286047000.5,N
1506293015.7,286047002.4,N
1506293035.5,286047004.1,N
1506293055.4,286047002.5,N
1506293075.2,286047002.6,N
1506293095.1,286047003.9,N
1506293096.0,286047003.9,N
1506293115.8,286047004.3,N
1506293135.6,286047001.9,N
1506293155.5,286047003.6,N
1506293175.3,286047004.0,N
1506293195.2,286047001.3,N
1506293215.9,286047004.0,N
1506293235.7,286047001.3,N
1506293255.6,286047003.0,N
1506293275.4,286047001.4,N
1506293295.2,286047001.4,N
1506293315.1,286047004.4,N
1506293316.0,286047004.4,N
1506293335.8,286047004.2,N
1506293355.7,286047004.2,N
1506293375.5,286047005.6,Y
1506293395.3,286047001.8,P
1506293415.2,286047002.5,P
1506293435.0,286047002.7,P
1506293435.9,286047002.7,Y
1506293455.8,286047001.1,P
1506293475.6,286047001.2,N
1506293495.4,286047000.3,N
1506293515.3,286047000.6,N
1506293535.1,286046999.9,N
1506293555.9,286047000.8,N
1506293575.7,286047000.3,N
1506293595.5,286047002.8,Y
1506293615.4,286046996.7,P
1506293635.2,286046999.3,N
1506293655.0,286046996.9,N
1506293656.0,286046996.9,N
1506293675.8,286046999.2,N
1506293695.6,286046997.0,N
1506293715.5,286046998.9,N
1506293735.3,286046999.0,N
1506293755.1,286046999.0,N
1506293775.9,286046998.6,N
1506293795.7,286047000.1,N
1506293815.6,286047001.0,N
1506293835.4,286047000.6,N
1506293855.2,286047000.3,N
1506293875.1,286047001.0,N
1506293876.0,286047001.0,N
1506293895.8,286047000.8,N
1506293915.6,286047000.6,N
1506293935.5,286046998.1,N
1506293955.3,286047000.8,N
1506293975.2,286047002.6,N
1506293995.9,286047002.8,N
